Other Public Products
Issued by NWS Grand Forks, ND

Home | Current Version | Previous Version | Text Only | Print | Product List | Glossary On
Versions: 1 2 3 4 5 6 7 8 9 10 11 12 13 14 15 16 17 18 19 20 21 22 23 24 25 26 27 28 29 30 31 32 33 34 35 36 37 38 39 40 41 42 43 44 45 46 47 48 49 50
000
FPUS83 KFGF 192231
OPUFGF
PRAIRIE TO PINES WEATHER ROUNDUP
NATIONAL WEATHER SERVICE EASTERN NORTH DAKOTA/GRAND FORKS ND
400 PM CST THU JAN 19 2017

 **SATELLITE DATA USED TO AUGMENT SKY COVER AT AUTOMATED STATIONS**
 *****  WEATHER ACROSS EASTERN NORTH DAKOTA  *****

CITY           SKY/WX    TMP DP  RH WIND       PRES   REMARKS
GRAND FORKS    FOG       32  29  88 S20       29.57R VSB 3/4 WCI  20
GRAND FORKS AF CLOUDY    32  28  86 S17       29.55R WCI  21
GRAND CITY NWS NOT AVBL
BUXTON           N/A     32  32  99 S9          N/A  WCI  24
DEVILS LAKE    FAIR      32  25  75 CALM      29.49R
FARGO          FAIR      39  34  82 S15       29.58S
WAHPETON ARPT  FAIR      36  32  87 SE10      29.61S
$$

 *****  WEATHER ACROSS CENTRAL AND WESTERN NORTH DAKOTA  *****

CITY           SKY/WX    TMP DP  RH WIND       PRES   REMARKS
JAMESTOWN      FOG       26  25  96 S13       29.51R VSB 1/4 WCI  15
BISMARCK       FAIR      24  20  84 SE8       29.48R WCI  15
MINOT          FAIR      35  29  78 CALM      29.43S
MINOT AFB      FAIR      35  29  78 SW3       29.42S
GARRISON         N/A     26  21  81 SE5       29.43S WCI  20
WILLISTON      FAIR      32  21  64 W5        29.43F
DICKINSON      FAIR      33  25  72 W14       29.41R WCI  23
HETTINGER      FAIR      31  25  78 W8        29.45R WCI  23
$$

 *****  OTHER OBSERVATIONS NORTHEAST NORTH DAKOTA  *****

CITY           SKY/WX    TMP DP  RH WIND       PRES   REMARKS
WALHALLA       NOT AVBL
LANGDON        NOT AVBL
CAVALIER         N/A     28  25  86 S10       29.51S WCI  19
GRAFTON        FAIR      27  27 100 S16       29.56R WCI  14
CANDO          NOT AVBL
FORT TOTTEN      N/A     34  23  64 S7        29.95S
ROLLA            N/A    N/A N/A N/A MISG        N/A
RUGBY            N/A     27  23  86 SE7       29.46R WCI  19
 ***** THE ABOVE OBSERVATIONS ARE NON NWS ARE NOT QUALITY
        CONTROLLED AND MAY MIS-REPORT RAIN FOR SNOW...
$$

 *****  OTHER OBSERVATIONS SOUTHEAST NORTH DAKOTA *****

CITY           SKY/WX    TMP DP  RH WIND       PRES   REMARKS
COOPERSTOWN    FOG       28  28 100 S15       29.53R VSB<1/4 WCI  17
VALLEY CITY    LGT RAIN  32  32 100 S15       29.55S VSB 1/4 WCI  22
OAKES          NOT AVBL
GWINNER        CLOUDY    34  34 100 S14       29.58S VSB 1/4 WCI  24
SHEYENNE NWR     N/A     39  33  80 S7        29.95S
BUFFALO          N/A     34  33  96 E10         N/A
WYNDMERE         N/A     37  36  93 SE8         N/A
 ***** THE ABOVE OBSERVATIONS ARE NON NWS ARE NOT QUALITY
       CONTROLLED AND MAY MIS-REPORT RAIN FOR SNOW...
$$

  *****  WEATHER ACROSS NORTHERN MINNESOTA  *****

CITY           SKY/WX    TMP DP  RH WIND       PRES   REMARKS
FLAG ISLAND    FAIR      30  27  86 S9        29.57R WCI  22
WARROAD        FAIR      41  36  81 SW7       29.58R
ROSEAU         FAIR      37  34  87 S10       29.57R
HALLOCK        CLOUDY    30  28  93 S20       29.54S FOG     WCI  18
THF RVR FALLS  FAIR      38  33  82 S10       29.58S
HALSTAD          N/A     35  32  90 S13         N/A
FOSSTON        FAIR      39  34  81 S9        29.59S
BAUDETTE       FAIR      37  31  78 S12       29.59R
WASKISH        FAIR      39  36  87 SE3       29.62R
CROOKSTON      FAIR      34  32  93 S12       29.59R FOG
$$
  *****  WEATHER ACROSS CENTRAL AND WEST MINNESOTA  *****

CITY           SKY/WX    TMP DP  RH WIND       PRES   REMARKS
BEMIDJI        FAIR      42  36  81 S8        29.62R
PARK RAPIDS    FAIR      41  33  73 S8        29.63R
WADENA         FAIR      39  34  81 SE8       29.65R
DETROIT LAKES  FAIR      41  37  87 S9        29.63R
MOORHEAD       FAIR      37  34  87 S14       29.60S
FERGUS FALLS   FAIR      37  36  93 SE15      29.66R
ELBOW LAKE     FAIR      35  34  94 SE16      29.64R FOG
MORRIS MN      CLOUDY    36  34  93 SE13      29.64S FOG
STAPLES        MOCLDY    39  36  87 SE8       29.67R
WHEATON        FAIR      43  41  93 SE16      29.63R FOG
$$
  *****  WEATHER ELSEWHERE ACROSS MINNESOTA  *****

CITY           SKY/WX    TMP DP  RH WIND       PRES   REMARKS
DULUTH         FAIR      43  35  73 S7        29.71R
INTRNTL FALLS  FAIR      39  33  79 S3        29.63R
ELY            FAIR      41  37  87 SW6       29.69R
CLOQUET        FAIR      46  34  61 S3        29.72R
BRAINERD       FAIR      40  34  79 S12       29.70R HAZE
HIBBING        CLOUDY    35  35 100 S3        29.70S FOG
ALEXANDRIA     CLOUDY    37  34  89 SE12      29.67R
SAINT CLOUD    FAIR      39  34  82 S10       29.71R
MINNEAPOLIS    CLOUDY    37  31  78 S7        29.75F
$$

  *****  WEATHER ACROSS SOUTH DAKOTA  *****

CITY           SKY/WX    TMP DP  RH WIND       PRES   REMARKS
SIOUX FALLS    FOG       38  38 100 SE9       29.64S VSB 1/4
BROOKINGS      FOG       35  33  92 S15       29.62S VSB 1/4
WATERTOWN      FOG       33  33 100 S12       29.60S VSB 1/4 WCI  24
HURON          FOG       36  36 100 SE12      29.56F VSB 1
SISSETON         N/A     38  36  92 S13       29.59R
ABERDEEN       FOG       33  32  96 S10       29.57R VSB 1/4 WCI  25
MITCHELL       CLOUDY    40  40 100 SE10      29.59S FOG
PIERRE         FAIR      29  23  78 CALM      29.49S
MOBRIDGE       FAIR      22  16  78 SE7       29.48R WCI  13
RAPID CITY     FAIR      37  27  67 W3        29.46S
$$

  *****  SOME WEATHER IN NEARBY STATES *****

CITY           SKY/WX    TMP DP  RH WIND       PRES   REMARKS
GLASGOW MT     FAIR      32  24  72 SW3       29.42R
GREAT FALLS MT FAIR      42  28  57 SW15      29.44F
CHEYENNE WY    FAIR      52  13  21 NW13      29.53R
SCOTTSBLUFF NE FAIR      56  23  27 W3        29.49S
OMAHA NE       CLOUDY    43  39  86 S8        29.67S FOG
DES MOINES IA  CLOUDY    39  38  96 SE8       29.71R FOG
DAVENPORT IA   LGT RAIN  38  37  97 E9        29.79S FOG
CHICAGO IL     CLOUDY    41  36  82 E6        29.87F HAZE
EAU CLAIRE WI  CLOUDY    39  32  76 S3        29.79R
LA CROSSE WI   CLOUDY    39  33  79 CALM      29.81F
$$

  *****  SOME NATIONAL WEATHER *****

CITY           SKY/WX    TMP DP  RH WIND       PRES   REMARKS
LA GUARDIA NY  MOCLDY    45  34  65 NW13      30.00R
RALEIGH NC     MOCLDY    58  39  49 CALM      30.01S
ATLANTA GA     MOCLDY    72  54  53 S12       29.91F
NEW ORLEANS LA LGT RAIN  67  65  93 W7        29.80F
OKLAHOMA CITY  PTSUNNY   58  46  64 SE14      29.56R
ALBUQUERQUE NM PTSUNNY   49  26  41 W12       29.78F
SALT LAKE CITY LGT SNOW  33  31  92 NW7       29.73S VSB 1
LOS ANGELES CA FAIR      61  49  64 W22       29.89F
BOISE ID       CLOUDY    37  32  82 SE8       29.66F
SEATTLE WA     LGT RAIN  47  42  83 S13       29.50F
$$

*** WEATHER ACROSS MANITOBA...SASKATCHEWAN AND ONTARIO ***
                ***ONTARIO***

CITY           SKY/WX    TMP DP  RH WIND       PRES   REMARKS
GERALDTON      PTCLDY    37  30  75 S10G17    29.70R
THUNDER BAY    CLOUDY    36  36 100 S5        29.74S FOG
SIOUX LOOKOUT  MOCLDY    37  30  75 S12       29.57R
TORONTO        CLOUDY    36  30  80 VRB2      30.00R
BIG TROUT LK   PTCLDY    34  28  80 SW7       29.42R
PICKLE LAKE    MOCLDY    37  30  75 S7        29.53R
DRYDEN         CLOUDY    32  30  93 S13G18    29.59R WCI  22
KENORA         MOCLDY    32  28  86 S13       29.57R WCI  22
$$
                *** MANITOBA***

CITY           SKY/WX    TMP DP  RH WIND       PRES   REMARKS
BRANDON        MOCLDY    27  23  86 W6        29.44S WCI  20
DAUPHIN        CLEAR     39  32  75 W5        29.39R
ISLAND LAKE    MOCLDY    34  28  80 S2        29.41
PILOT MOUND      N/A     27  21  80 S7          N/A  WCI  19
THE PAS        CLOUDY    34  28  80 N5        29.38R
THOMPSON       CLOUDY    28  28 100 N5        29.40R FOG     WCI  23
WINNIPEG       CLOUDY    28  25  86 S17       29.50S WCI  16
LYNN LAKE      LGT SNOW  28  28 100 VRB2      29.38R
CHURCHILL      FLURRIES  21  21 100 E8        29.46R WCI  12
GILLAM         CLOUDY    30  28  93 N3        29.39R
$$
                ***SASKATCHEWAN***

CITY           SKY/WX    TMP DP  RH WIND       PRES   REMARKS
ESTEVAN        PTSUNNY   32  27  80 S3        29.41S
KINDERSLEY     CLOUDY    37  32  81 S9        29.26S
LLOYDMINSTER   MOCLDY    37  30  75 SE5       29.20S
PRINCE ALBERT  CLOUDY    30  30 100 VRB3      29.30R
REGINA         PTSUNNY   34  28  80 SE12      29.38S
YORKTON        CLEAR     39  32  75 SE6       29.38S   C1F1C2F2C3F3C4F4C5F5C6F6C7F7C8F8C9F9CaFaCbFbCcFcCdFdCe!



USA.gov is the U.S. government's official web portal to all federal, state and local government web resources and services.